Weather History for Sallisaw, OK

Change the Weather History Date:

Sunday, February 3, 2013

  Actual Average Record
Temperature  
Mean Temperature 44 °F -  
Max Temperature 60 °F 48 °F 79 °F (1962)
Min Temperature 28 °F 27 °F -6 °F (1985)
Degree Days  
Heating Degree Days 21    
Moisture  
Dew Point 27 °F    
Average Humidity 59    
Maximum Humidity 100    
Minimum Humidity 22    
Precipitation  
Precipitation 0.00 in - - ()
Sea Level Pressure  
Sea Level Pressure 30.20 in    
Wind  
Wind Speed 2 mph (East)    
Max Wind Speed 8 mph    
Max Gust Speed -    
Visibility 10 miles    
Events      
Averages and records for this station are not official NWS values.
T = Trace of Precipitation, MM = Missing Value Source: NWS Daily Summary

Daily Weather History Graph

Daily Weather History Graph

Search for Another Location

Airport:

Trip Planner

Search our weather history database for the weather conditions in past years. The results will help you decide how hot, cold, wet, or windy it might be!

Date:

Astronomy

Feb. 03, 2013 Rise Set
Actual Time 7:16 AM CST 5:49 PM CST
Civil Twilight 6:50 AM CST 6:16 PM CST
Nautical Twilight 6:20 AM CST 6:46 PM CST
Astronomical Twilight 5:50 AM CST 7:16 PM CST
Moon 12:45 AM CST (2/3) 11:28 AM CST (2/3)
Length of Visible Light 11h 25m
Length of Day
10h 32m
Waning Gibbous, 48% of the Moon is Illuminated
Feb 3
Waning Gibbous
Feb 10
New
Feb 17
First Quarter
Feb 25
Full
Mar 4
Last Quarter

Hourly Weather History & Observations

Time (CST) Temp. Windchill Dew Point Humidity Pressure Visibility Wind Dir Wind Speed Gust Speed Precip Events Conditions
12:15 AM 32.0 °F - 30.2 °F 93% 30.26 in 10.0 mi Calm Calm - N/A   Clear
12:35 AM 32.0 °F - 32.0 °F 100% 30.26 in 10.0 mi Calm Calm - N/A   Clear
12:55 AM 32.0 °F - 30.2 °F 93% 30.26 in 10.0 mi Calm Calm - N/A   Clear
1:15 AM 32.0 °F - 30.2 °F 93% 30.25 in 10.0 mi Calm Calm - N/A   Clear
1:35 AM 32.0 °F - 30.2 °F 93% 30.25 in 10.0 mi Calm Calm - N/A   Clear
1:55 AM 30.2 °F - 30.2 °F 100% 30.25 in 10.0 mi Calm Calm - N/A   Clear
2:15 AM 32.0 °F - 30.2 °F 93% 30.25 in 10.0 mi Calm Calm - N/A   Clear
2:35 AM 30.2 °F - 30.2 °F 100% 30.25 in 10.0 mi Calm Calm - N/A   Clear
2:55 AM 30.2 °F - 30.2 °F 100% 30.25 in 10.0 mi Calm Calm - N/A   Clear
3:15 AM 30.2 °F - 28.4 °F 93% 30.25 in 10.0 mi Calm Calm - N/A   Clear
3:35 AM 30.2 °F - 30.2 °F 100% 30.25 in 10.0 mi Calm Calm - N/A   Clear
3:55 AM 30.2 °F - 30.2 °F 100% 30.25 in 10.0 mi Calm Calm - N/A   Clear
4:15 AM 30.2 °F - 28.4 °F 93% 30.25 in 10.0 mi Calm Calm - N/A   Clear
4:35 AM 28.4 °F - 28.4 °F 100% 30.25 in 10.0 mi Calm Calm - N/A   Clear
4:55 AM 28.4 °F - 28.4 °F 100% 30.25 in 10.0 mi Calm Calm - N/A   Clear
5:15 AM 30.2 °F - 30.2 °F 100% 30.25 in 10.0 mi Calm Calm - N/A   Clear
5:35 AM 30.2 °F - 30.2 °F 100% 30.25 in 10.0 mi Calm Calm - N/A   Clear
5:55 AM 30.2 °F - 28.4 °F 93% 30.26 in 10.0 mi Calm Calm - N/A   Clear
6:15 AM 30.2 °F 26.7 °F 30.2 °F 100% 30.26 in 10.0 mi WSW 3.5 mph - N/A   Clear
6:35 AM 32.0 °F - 30.2 °F 93% 30.27 in 10.0 mi Calm Calm - N/A   Clear
6:55 AM 30.2 °F - 26.6 °F 86% 30.29 in 10.0 mi Calm Calm - N/A   Clear
7:15 AM 32.0 °F - 30.2 °F 93% 30.29 in 10.0 mi Calm Calm - N/A   Clear
7:35 AM 32.0 °F 28.7 °F 32.0 °F 100% 30.30 in 10.0 mi WSW 3.5 mph - N/A   Clear
7:55 AM 33.8 °F - 30.2 °F 87% 30.30 in 10.0 mi Calm Calm - N/A   Clear
8:15 AM 35.6 °F - 32.0 °F 87% 30.30 in 10.0 mi Calm Calm - N/A   Clear
8:35 AM 37.4 °F - 33.8 °F 87% 30.30 in 10.0 mi Calm Calm - N/A   Clear
8:55 AM 41.0 °F 39.0 °F 35.6 °F 81% 30.31 in 10.0 mi SW 3.5 mph - N/A   Clear
9:15 AM 44.6 °F - 32.0 °F 61% 30.31 in 10.0 mi Calm Calm - N/A   Clear
9:35 AM 46.4 °F 44.3 °F 28.4 °F 50% 30.31 in 10.0 mi North 4.6 mph - N/A   Clear
9:55 AM 50.0 °F - 26.6 °F 40% 30.31 in 10.0 mi North 6.9 mph - N/A   Clear
10:15 AM 50.0 °F - 24.8 °F 37% 30.31 in 10.0 mi North 3.5 mph - N/A   Clear
10:35 AM 51.8 °F - 23.0 °F 33% 30.31 in 10.0 mi NNE 3.5 mph - N/A   Clear
11:15 AM 53.6 °F - 21.2 °F 28% 30.31 in 10.0 mi North 3.5 mph - N/A   Clear
11:35 AM 53.6 °F - 19.4 °F 26% 30.30 in 10.0 mi NNW 4.6 mph - N/A   Clear
11:55 AM 55.4 °F - 19.4 °F 25% 30.29 in 10.0 mi East 3.5 mph - N/A   Clear
12:15 PM 55.4 °F - 17.6 °F 23% 30.28 in 10.0 mi ENE 3.5 mph - N/A   Clear
12:35 PM 57.2 °F - 19.4 °F 23% 30.27 in 10.0 mi Calm Calm - N/A   Clear
12:55 PM 57.2 °F - 19.4 °F 23% 30.25 in 10.0 mi North 3.5 mph - N/A   Clear
1:15 PM 59.0 °F - 19.4 °F 22% 30.24 in 10.0 mi SSE 4.6 mph - N/A   Clear
1:35 PM 59.0 °F - 23.0 °F 25% 30.23 in 10.0 mi WSW 6.9 mph - N/A   Clear
1:55 PM 59.0 °F - 23.0 °F 25% 30.21 in 10.0 mi SW 5.8 mph - N/A   Clear
2:15 PM 59.0 °F - 21.2 °F 23% 30.19 in 10.0 mi SW 5.8 mph - N/A   Clear
2:35 PM 59.0 °F - 21.2 °F 23% 30.19 in 10.0 mi SW 4.6 mph - N/A   Clear
2:55 PM 60.8 °F - 21.2 °F 22% 30.18 in 10.0 mi Calm Calm - N/A   Clear
3:15 PM 59.0 °F - 23.0 °F 25% 30.17 in 10.0 mi West 8.1 mph - N/A   Clear
3:35 PM 59.0 °F - 23.0 °F 25% 30.16 in 10.0 mi South 8.1 mph - N/A   Clear
4:15 PM 59.0 °F - 23.0 °F 25% 30.15 in 10.0 mi SSE 6.9 mph - N/A   Clear
4:35 PM 59.0 °F - 21.2 °F 23% 30.14 in 10.0 mi South 5.8 mph - N/A   Clear
4:55 PM 59.0 °F - 23.0 °F 25% 30.13 in 10.0 mi SE 6.9 mph - N/A   Clear
5:15 PM 59.0 °F - 23.0 °F 25% 30.12 in 10.0 mi SSE 5.8 mph - N/A   Clear
5:35 PM 55.4 °F - 24.8 °F 31% 30.12 in 10.0 mi SSE 5.8 mph - N/A   Clear
5:55 PM 53.6 °F - 26.6 °F 35% 30.12 in 10.0 mi SE 3.5 mph - N/A   Clear
6:15 PM 53.6 °F - 26.6 °F 35% 30.11 in 10.0 mi SE 3.5 mph - N/A   Clear
6:35 PM 53.6 °F - 26.6 °F 35% 30.10 in 10.0 mi East 4.6 mph - N/A   Clear
6:55 PM 51.8 °F - 26.6 °F 38% 30.10 in 10.0 mi ESE 3.5 mph - N/A   Clear
7:15 PM 51.8 °F - 24.8 °F 35% 30.10 in 10.0 mi East 3.5 mph - N/A   Clear
7:35 PM 50.0 °F - 26.6 °F 40% 30.10 in 10.0 mi East 3.5 mph - N/A   Clear
7:55 PM 48.2 °F - 26.6 °F 43% 30.09 in 10.0 mi Calm Calm - N/A   Clear
8:15 PM 44.6 °F 43.1 °F 32.0 °F 61% 30.09 in 10.0 mi East 3.5 mph - N/A   Clear
8:35 PM 42.8 °F 41.1 °F 30.2 °F 61% 30.08 in 10.0 mi ENE 3.5 mph - N/A   Clear
8:55 PM 46.4 °F 44.3 °F 28.4 °F 50% 30.08 in 10.0 mi ENE 4.6 mph - N/A   Clear
9:15 PM 46.4 °F 44.3 °F 28.4 °F 50% 30.07 in 10.0 mi ENE 4.6 mph - N/A   Clear
9:35 PM 44.6 °F 42.2 °F 28.4 °F 53% 30.06 in 10.0 mi ENE 4.6 mph - N/A   Clear
9:55 PM 44.6 °F 41.4 °F 28.4 °F 53% 30.05 in 10.0 mi ENE 5.8 mph - N/A   Clear
10:15 PM 46.4 °F 42.9 °F 28.4 °F 50% 30.05 in 10.0 mi ENE 6.9 mph - N/A   Clear
10:35 PM 46.4 °F 43.5 °F 28.4 °F 50% 30.04 in 10.0 mi ENE 5.8 mph - N/A   Clear
11:15 PM 46.4 °F 42.9 °F 28.4 °F 50% 30.02 in 10.0 mi ENE 6.9 mph - N/A   Clear
11:35 PM 46.4 °F 43.5 °F 28.4 °F 50% 30.01 in 10.0 mi ENE 5.8 mph - N/A   Clear
11:55 PM 44.6 °F 41.4 °F 28.4 °F 53% 30.01 in 10.0 mi NE 5.8 mph - N/A   Scattered Clouds